Regional Weather Roundup
Issued by NWS

Home | Current Version | Previous Version | Graphics & Text | Print | Product List | Glossary On
Versions: 1 2 3 4 5 6 7 8 9 10 11 12 13 14 15 16 17 18 19 20 21 22 23 24 25 26 27 28 29 30 31 32 33 34 35 36 37 38 39 40 41 42 43 44 45 46 47 48 49 50
000
ASUS43 KDTX 310210
RWRMI
MICHIGAN HOURLY REGIONAL WEATHER ROUNDUP
NATIONAL WEATHER SERVICE DETROIT/PONTIAC MI
1000 PM EDT MON MAY 30 2016

NOTE: "FAIR" INDICATES FEW OR NO CLOUDS BELOW 12,000 FEET WITH NO
SIGNIFICANT WEATHER AND/OR OBSTRUCTION TO VISIBILITY.

MIZ047>049-052>055-059>063-066>070-074>076-081>083-310300-
SOUTHEAST LOWER MICHIGAN

CITY           SKY/WX    TMP DP  RH WIND       PRES   REMARKS
ADRIAN         CLEAR     74  52  46 N5        29.99R
ALMA           CLEAR     68  46  44 NW3       29.99R
ANN ARBOR      CLEAR     73  50  44 NW6       29.98R
BAD AXE        CLEAR     67  51  57 N6        29.98R
CARO           CLEAR     66  52  59 N3        29.97R
DETROIT CITY   CLEAR     78  52  40 NW3       29.96R
DETROIT        PTCLDY    75  54  47 W5        29.97R
FLINT          CLEAR     75  54  47 W6        29.98R
GROSSE ILE     CLEAR     70  64  83 CALM      29.96R
HILLSDALE      CLEAR     71  46  41 CALM      30.01R
HOWELL         CLEAR     71  49  46 W3        29.99R

CITY           SKY/WX    TMP DP  RH WIND       PRES   REMARKS
JACKSON        CLEAR     70  51  51 CALM      29.99S
LAMBERTVILLE   CLEAR     69  57  66 CALM      29.98R
LANSING        CLEAR     72  52  49 W5        30.00R
LAPEER         MOCLDY    68  60  75 CALM      29.98R
MASON          CLEAR     71  53  52 W10       29.99S
MONROE         CLEAR     67  62  83 CALM      29.96R
MT. CLEMENS    CLEAR     69  59  70 VRB2      29.96R
PONTIAC        CLEAR     73  52  47 W3        29.98R
PORT HOPE        N/A     63  60  90 CALM      29.97R
PORT HURON     PTCLDY    63  61  94 CALM      29.97R
TRI CITIES     CLEAR     71  45  39 NW7       29.99R
MIDLAND        FAIR      67  47  49 NW3       29.99R
TROY           CLEAR     77  53  43 W5        29.99R
SAGINAW HB     CLEAR     70  45  40 NW7       29.98R
$$
MIZ043>046-050>051-056>058-064>065-071>073-077>080-310300-
SOUTHWEST LOWER MICHIGAN

CITY           SKY/WX    TMP DP  RH WIND       PRES   REMARKS
BATTLE CREEK   CLEAR     69  56  62 W5        30.00R
BENTON HARBOR  CLEAR     69  57  65 CALM      29.98S
BIG RAPIDS     CLEAR     64  49  59 W3        30.01R
COLDWATER      CLEAR     70  52  53 CALM      29.99S
FREMONT        FAIR      64  51  61 CALM      30.00S
HOLLAND        CLEAR     67  57  70 NW3       30.00S
GRAND RAPIDS   PTCLDY    72  54  53 NW7       29.99S
IONIA          FAIR      71  53  53 NW3       29.99R
KALAMAZOO      CLEAR     72  55  55 N6        29.99R
LUDINGTON      CLEAR     63  56  78 CALM      30.01R
MARSHALL       CLEAR     68  54  60 CALM      29.99R
MOUNT PLEASANT CLEAR     69  45  42 CALM      30.00R
MUSKEGON       PTCLDY    65  56  72 CALM      30.01R
SOUTH HAVEN    CLEAR     67  58  73 CALM      29.99S
$$
MIZ016>042-310300-
NORTHERN LOWER MICHIGAN

CITY           SKY/WX    TMP DP  RH WIND       PRES   REMARKS
ALPENA         CLEAR     65  53  65 CALM      29.98R
BEAVER ISLAND  CLEAR     55  50  85 SW5       30.00R
BELLAIRE       CLEAR     60  54  80 CALM      29.98R
CADILLAC       CLEAR     61  51  68 CALM      30.01R
CHARLEVOIX     CLEAR     58  50  75 NW8       30.02R
FRANKFORT      CLEAR     62  55  78 CALM      29.99R
GAYLORD        CLEAR     64  49  57 CALM      30.00R
GRAYLING       CLEAR     60  50  70 CALM      30.01R
HARBOR SPRINGS CLEAR     65  49  57 W8        29.99R
HOUGHTON LAKE  CLEAR     61  51  70 CALM      30.01R
OSCODA         CLEAR     63  53  71 CALM      29.98R
PELLSTON       CLEAR     63  49  60 W6        29.99R
ROGERS CITY    CLEAR     59  50  72 NW3       29.99R
TRAVERSE CITY  PTCLDY    68  51  54 S3        29.96R
$$
MIZ007>008-015-310300-
EASTERN UPPER MICHIGAN

CITY           SKY/WX    TMP DP  RH WIND       PRES   REMARKS
KINROSS          N/A     59  54  82 NW3       29.97R
MACKINAC ISLAN CLEAR     56  51  82 W6        29.98R
NEWBERRY       CLEAR     58  50  74 NW7       30.00R
S. S. MARIE    CLEAR     59  50  72 NW9       29.97R
MUNISING         N/A     54  48  80 N10       30.03R
$$
MIZ004>006-011>014-085-310300-
CENTRAL UPPER MICHIGAN

CITY           SKY/WX    TMP DP  RH WIND       PRES   REMARKS
MANISTIQUE     CLEAR     62  50  65 N5        29.99R
ESCANABA       CLEAR     63  54  72 NE6       29.98R
MENOMINEE      CLEAR     66  54  63 CALM      29.96S
SAWYER-GWINN   CLEAR     55  46  71 NE15      30.02R
$$
MIZ001>003-009>011-084-310300-
WESTERN UPPER MICHIGAN

CITY           SKY/WX    TMP DP  RH WIND       PRES   REMARKS
IRON MOUNTAIN  CLEAR     64  47  53 CALM      29.97R
HOUGHTON       CLEAR     55  46  71 NE14G23   30.02R
COPPER HARBOR    N/A     49  43  80 N8        30.04R
IRONWOOD       PTCLDY    64  52  63 E5        29.95S
$$

ABBREVIATIONS USED IN REMARKS
   TC - TEMPERATURE IN CELSIUS
  WCI - WIND CHILL INDEX
   HX - HEAT INDEX
  VSB - VISIBILITY





USA.gov is the U.S. government's official web portal to all federal, state and local government web resources and services.